Theta_e
360 361 361 361 361 361 359 352 349 351 353 355 353 353 352 352 351 351 349 347 348 347 347 346 342 344 346 346 346 347 347 347 349 346 346 344 340 340 339 338 337 337 334
361 361 361 361 361 359 354 349 348 352 355 355 352 351 350 350 350 349 348 347 347 346 346 345 345 344 345 346 346 346 348 347 347 346 345 341 340 339 339 337 335 334 334
361 362 361 361 359 353 348 347 348 353 355 351 350 349 349 348 349 349 347 346 345 345 345 345 346 345 346 346 346 346 346 346 346 345 343 338 336 337 335 333 332 332 332
361 361 360 359 354 350 348 345 348 354 353 350 349 348 348 347 347 346 346 347 346 346 346 345 345 345 345 345 346 346 346 345 345 345 340 335 334 332 332 331 329 330 330
354 352 352 351 350 349 351 355 356 354 351 349 348 347 346 346 345 346 346 346 346 345 344 345 344 344 344 345 344 344 343 344 342 340 336 333 332 330 329 329 329 329 331
350 354 355 354 353 353 354 356 355 353 351 350 348 346 345 344 342 342 344 344 343 343 343 343 343 343 343 340 338 338 342 343 343 340 337 335 333 332 331 331 330 329 331
349 352 354 354 353 353 354 355 354 353 352 351 349 347 345 345 342 339 340 342 342 342 342 342 341 340 340 339 336 331 338 339 340 340 341 340 337 333 333 334 332 332 333
347 353 353 352 352 352 353 353 354 353 353 352 351 349 348 346 345 342 339 340 341 341 341 341 341 340 339 337 337 339 338 340 338 337 339 340 339 337 334 333 332 331 330
339 340 353 353 353 353 352 352 352 352 353 353 351 350 350 349 346 343 341 340 340 340 340 341 341 340 340 336 338 339 338 339 338 337 337 337 336 334 333 331 329 329 330
338 340 346 352 352 351 352 351 352 352 352 352 351 350 350 349 348 346 342 341 341 341 340 341 341 340 341 339 336 339 340 338 338 335 333 332 332 332 333 335 333 330 332
335 334 335 338 340 342 343 346 348 348 347 347 348 347 347 346 346 344 343 342 342 343 342 341 340 340 339 340 335 339 340 338 337 338 336 335 334 334 333 334 333 333 332
330 329 331 334 337 339 341 344 342 342 342 342 343 343 342 342 342 341 340 339 340 341 343 342 341 339 338 338 336 336 339 337 338 337 337 337 335 334 333 333 333 333 333
325 329 330 332 333 335 337 337 338 338 338 338 338 339 340 340 340 340 340 340 339 338 339 341 341 341 339 336 335 335 337 336 335 336 337 336 335 335 334 333 332 331 333
327 329 330 330 332 332 331 331 332 334 335 336 336 336 336 337 338 339 339 340 339 336 334 332 333 337 338 335 334 334 334 336 335 336 336 336 335 334 334 333 333 332 332
329 329 328 329 330 331 332 330 330 329 327 325 325 322 323 327 333 336 336 334 338 333 331 329 331 332 333 335 336 335 335 337 337 337 337 336 335 334 334 333 332 331 331
330 329 327 328 328 330 331 331 330 326 325 324 323 323 322 323 323 326 332 333 335 334 328 331 332 333 333 335 337 338 337 336 338 338 336 335 334 333 333 332 333 332 332
328 328 327 327 327 327 329 331 331 331 328 327 325 324 324 324 323 327 333 336 337 330 331 333 334 334 334 334 334 334 334 333 332 332 333 333 333 332 331 331 330 330 329
326 325 326 326 325 325 325 326 329 330 331 330 329 327 326 325 325 326 333 333 329 326 330 334 334 333 333 332 332 331 330 329 329 328 327 328 327 326 322 322 324 325 325
324 324 324 324 324 324 323 325 325 329 331 330 329 329 328 327 327 326 325 326 331 330 328 330 333 332 331 331 331 330 330 329 327 323 321 322 322 321 321 322 323 323 323
322 321 321 321 322 323 322 322 323 325 329 331 330 328 327 328 329 328 324 326 327 328 327 327 328 329 331 331 328 327 324 323 322 321 321 322 322 321 321 321 320 319 318
321 321 321 320 322 322 322 322 323 323 328 330 329 325 324 325 326 323 322 322 321 322 322 324 323 323 322 322 322 322 322 322 322 322 323 322 321 319 319 318 318 319 319
322 322 322 323 324 323 324 323 323 323 329 328 328 324 322 322 320 320 321 322 322 323 323 323 323 323 323 322 322 322 321 320 319 319 319 319 319 319 319 318 318 318 317
322 323 323 324 324 323 324 324 325 327 328 327 326 325 325 322 320 320 320 319 320 322 323 322 321 321 320 320 320 320 319 320 319 319 318 318 318 318 318 318 318 315 312
322 324 325 325 325 324 325 325 325 326 327 326 325 324 322 319 318 318 319 319 318 316 318 319 319 318 317 316 317 318 317 318 319 319 318 318 317 315 314 313 311 311 311
323 324 325 324 323 323 323 323 325 325 326 325 325 323 322 320 319 318 317 317 316 313 311 311 313 312 310 309 308 307 310 311 313 312 312 312 311 312 312 312 311 311 311
321 322 323 323 324 323 323 322 322 323 324 324 324 322 323 321 320 321 320 319 317 313 309 309 308 307 307 305 303 302 302 302 305 308 308 309 309 309 309 309 309 309 309
Wind_Speed
30 28 26 25 22 18 15 14 13 11 8 10 10 11 12 13 13 16 15 14 14 14 15 15 19 16 14 15 16 16 16 17 14 11 10 11 10 13 12 10 10 6 6
23 24 24 23 22 20 17 15 14 11 9 9 10 11 11 11 11 12 13 13 13 15 15 15 15 15 16 16 12 14 15 15 14 12 10 9 10 15 17 14 13 12 8
20 20 19 21 22 20 18 19 16 11 11 10 10 10 10 11 11 11 11 11 12 12 13 15 16 16 15 14 15 15 15 13 14 14 7 12 11 17 17 13 11 11 9
18 18 18 16 12 13 16 19 16 13 12 10 10 10 10 11 12 12 11 12 12 12 12 13 14 14 14 14 14 13 11 11 12 13 9 11 13 18 20 19 15 13 11
16 15 5 12 12 11 11 12 15 14 12 10 9 10 11 11 12 13 13 13 13 13 13 14 14 13 14 11 12 12 11 11 10 10 8 7 11 16 20 19 15 14 9
21 22 4 8 11 10 12 12 12 13 12 10 9 10 12 13 12 15 14 13 13 14 13 14 14 13 17 17 17 17 10 12 12 11 9 8 13 17 18 18 14 11 5
8 21 26 15 11 11 12 13 14 12 11 11 11 11 13 13 13 14 17 16 15 16 16 15 16 16 15 15 14 15 15 15 13 10 11 12 14 17 21 19 16 16 7
3 7 20 25 20 15 14 13 13 13 12 13 12 13 13 14 16 16 17 17 19 19 18 17 17 16 14 15 14 12 13 13 14 11 10 9 10 14 20 23 18 14 9
12 13 18 19 20 20 19 14 14 14 12 12 13 14 14 15 16 18 19 18 20 21 20 20 19 19 18 19 15 14 14 14 14 14 10 10 12 14 17 18 18 16 7
12 11 6 10 17 18 14 12 9 10 9 11 12 15 15 17 18 20 20 21 22 22 22 23 25 24 21 22 20 17 16 16 15 13 12 11 10 13 20 16 17 19 12
17 16 7 11 13 11 12 8 5 7 7 9 11 14 15 16 17 19 20 24 24 23 25 25 27 29 28 27 26 20 19 14 17 15 15 14 13 14 16 16 17 18 19
18 15 17 15 8 12 18 3 4 5 9 8 12 15 17 17 18 18 21 27 30 28 31 28 29 31 32 33 28 25 20 19 17 17 16 18 18 18 17 18 17 17 17
19 15 17 16 14 5 2 1 4 5 7 10 13 15 16 19 17 20 24 26 30 33 35 35 34 30 36 35 32 29 23 21 20 19 21 20 20 18 17 18 17 16 14
10 8 6 6 7 9 7 7 6 6 7 9 11 12 17 19 19 19 19 20 19 25 33 33 34 30 39 30 30 31 27 26 26 22 22 22 21 20 21 21 19 19 18
7 7 8 8 9 11 10 7 6 3 4 5 8 10 14 16 20 18 16 15 18 18 17 20 20 22 22 23 23 26 28 28 27 25 22 21 23 21 21 22 20 21 19
5 3 5 6 6 6 6 6 6 7 5 4 6 9 11 16 21 22 26 25 21 16 9 14 18 18 17 20 20 21 25 26 24 24 20 21 23 21 21 21 21 22 22
5 5 6 5 6 5 6 6 7 5 4 8 10 11 14 18 21 19 15 15 13 12 16 15 15 15 16 20 23 23 22 23 24 26 27 22 22 21 18 15 14 12 10
7 8 7 7 7 7 6 7 9 9 8 8 5 11 12 16 19 17 9 3 5 16 17 10 12 13 14 17 18 18 18 20 22 25 24 25 26 25 18 14 15 12 10
10 9 7 10 9 9 10 10 10 6 9 8 10 9 14 15 13 18 6 2 4 8 16 11 10 18 18 19 17 19 22 21 22 18 16 14 12 13 14 13 14 12 15
10 8 9 11 11 11 11 11 10 9 7 8 7 10 14 14 13 12 11 4 3 4 7 6 4 1 9 13 13 13 13 12 14 12 13 19 15 16 19 17 16 16 15
10 10 8 11 11 10 11 10 10 10 5 3 2 5 6 7 7 9 10 14 15 15 16 18 16 17 14 13 17 19 21 22 21 20 20 17 18 19 18 18 15 13 13
8 8 9 10 9 10 10 9 9 10 1 2 4 5 5 5 6 7 10 13 14 15 15 15 16 18 15 17 21 21 19 20 19 19 19 14 12 13 13 13 13 12 14
6 7 9 10 8 5 10 7 6 1 3 2 6 6 10 10 12 12 11 9 10 14 15 15 13 15 14 14 13 15 15 14 11 12 13 13 12 14 14 13 14 12 10
5 7 8 9 8 8 7 5 5 3 3 4 9 9 9 9 9 9 11 9 11 14 9 8 8 10 12 12 11 12 11 10 10 10 10 12 11 11 11 10 10 9 9
4 6 6 5 5 3 2 3 1 2 1 7 10 10 8 8 8 7 5 6 5 4 7 10 10 10 10 10 10 11 14 16 11 12 10 10 11 10 10 10 9 8 6
5 5 5 4 4 4 4 4 2 2 4 7 10 9 5 6 6 5 7 7 6 5 6 8 9 10 9 8 9 11 11 11 12 12 9 10 10 10 10 8 8 7 8
Wind_Direction
186 186 187 191 192 188 193 192 190 201 221 230 234 236 233 226 223 222 224 223 211 219 226 226 224 232 227 227 227 233 232 225 233 247 221 198 205 203 204 201 206 168 238
187 184 185 184 181 181 184 187 187 200 210 223 233 234 237 233 218 216 224 226 223 216 218 219 224 225 232 246 249 230 229 232 224 237 216 191 206 204 207 206 195 190 207
177 183 185 185 177 180 179 177 178 196 203 211 229 229 226 225 221 216 217 227 225 226 222 225 232 231 227 228 232 240 235 233 227 232 199 195 200 204 196 192 189 189 200
169 175 175 181 190 196 185 182 184 190 204 202 215 227 229 226 230 222 222 222 228 230 230 231 232 232 234 236 236 239 243 246 243 244 204 201 196 201 195 177 176 189 186
102 94 119 168 179 183 198 203 189 185 191 200 207 220 225 221 229 235 228 229 231 235 232 231 231 236 239 236 243 234 244 238 227 218 206 191 180 171 183 184 182 185 189
116 101 96 220 172 194 201 207 212 193 187 193 203 222 227 234 228 226 235 232 235 237 237 240 237 231 239 238 240 244 239 237 230 215 210 214 202 193 184 184 171 171 194
144 154 168 195 173 186 219 206 213 207 195 203 206 217 226 235 237 238 229 241 241 240 243 243 239 238 230 234 239 232 231 229 232 231 232 227 210 198 185 184 184 192 192
315 234 186 166 171 187 202 229 220 225 211 208 214 221 227 233 236 237 229 231 247 249 245 239 238 240 230 227 227 218 225 224 224 225 231 235 223 202 197 191 185 175 173
217 231 225 191 171 179 185 207 234 230 226 217 221 227 228 237 241 243 231 235 242 244 243 238 234 233 228 224 224 222 221 221 217 221 213 211 208 200 192 178 174 169 171
24 343 286 210 178 169 177 160 219 232 232 231 232 235 237 240 244 245 237 236 242 241 239 239 234 228 226 225 216 218 214 222 221 205 208 204 201 192 190 195 189 179 177
45 28 335 162 122 137 126 108 205 226 231 240 246 251 250 248 249 246 242 239 248 249 245 240 234 229 220 222 214 220 219 221 211 208 205 202 205 196 198 197 197 197 196
46 43 45 9 63 65 53 233 244 258 261 272 275 273 264 255 250 249 251 251 247 252 254 249 247 225 223 217 214 212 220 208 206 210 209 203 204 196 204 199 202 205 209
49 30 29 27 44 76 148 305 272 247 277 282 270 268 266 266 262 259 257 257 259 258 256 254 251 248 215 216 212 212 210 215 212 212 204 210 209 205 196 189 197 199 203
45 35 46 52 55 49 48 31 9 344 338 314 307 302 294 284 272 265 267 256 257 261 265 254 252 254 207 201 207 209 210 218 218 216 221 218 198 201 197 191 192 190 189
12 4 2 15 21 31 41 31 23 9 310 291 293 299 289 285 275 269 280 280 275 278 277 250 229 204 173 191 199 208 213 219 225 227 227 227 201 198 202 193 192 189 198
277 1 358 351 7 14 5 22 8 9 358 330 337 338 319 321 325 291 262 274 277 277 234 212 201 202 177 194 207 220 218 222 225 224 218 217 207 205 203 204 204 192 203
327 333 318 309 326 334 332 338 337 324 341 336 338 331 329 336 337 309 267 273 253 229 210 226 223 209 202 194 198 206 216 220 226 224 219 214 207 199 199 183 189 195 196
298 276 287 296 299 295 301 302 307 320 327 317 328 335 334 344 351 349 277 240 179 204 223 252 221 209 198 193 192 198 214 231 240 243 230 221 210 198 181 181 179 180 188
290 291 301 296 291 299 289 282 280 288 301 320 328 337 349 344 349 11 31 307 221 201 212 234 241 218 212 210 208 213 224 233 237 216 199 201 210 197 170 162 161 163 148
283 272 292 291 285 276 273 274 280 286 300 306 318 342 334 334 352 1 16 15 234 205 209 218 234 233 201 202 203 202 176 164 155 153 161 153 149 158 149 150 153 148 148
298 294 277 282 273 288 286 276 273 272 297 300 60 346 348 339 356 12 43 52 74 103 108 115 105 105 108 124 129 136 139 131 140 143 140 131 142 142 147 138 134 136 141
298 303 302 295 295 272 270 276 275 270 323 299 46 4 17 47 43 63 83 82 89 103 109 116 115 111 116 126 132 125 122 129 138 137 131 133 138 141 144 148 155 158 160
302 310 306 276 273 267 244 251 297 331 196 78 88 101 85 95 95 82 77 75 86 100 105 108 100 104 105 109 110 113 122 132 137 134 129 140 150 154 157 165 164 162 167
339 330 337 339 35 346 348 318 294 268 214 153 139 120 119 109 101 104 107 93 93 91 87 93 85 100 109 112 121 125 128 133 141 143 147 149 147 149 153 155 159 160 153
0 358 27 16 2 329 325 336 18 139 132 158 145 143 135 127 126 123 108 112 115 105 110 106 104 101 100 110 116 124 135 134 136 138 142 150 154 152 156 160 156 158 156
16 8 28 45 29 24 26 42 51 162 175 143 146 154 150 132 131 138 146 148 141 129 115 104 107 110 111 115 127 137 140 142 136 136 142 147 150 155 162 162 170 173 175